Time,TemperatureF,DewpointF,PressureIn,WindDirection,WindDirectionDegrees,WindSpeedMPH,WindSpeedGustMPH,Humidity,HourlyPrecipIn,Conditions,Clouds,dailyrainin,SoftwareType,DateUTC
2013-01-13 00:02:00,30.2,-1.4,30.08,NNW,348,9.6,9.6,25,0.00,,SCT250,0.00,VWS V14.01,2013-01-13 08:02:00,
2013-01-13 00:07:00,30.0,-1.5,30.08,NNW,332,8.1,8.7,25,0.00,,SCT250,0.00,VWS V14.01,2013-01-13 08:07:00,
2013-01-13 00:12:00,29.8,-1.7,30.08,WNW,297,6.3,6.3,25,0.00,,SCT250,0.00,VWS V14.01,2013-01-13 08:12:00,
2013-01-13 00:17:00,29.5,-2.0,30.08,NW,324,6.3,6.7,25,0.00,,SCT250,0.00,VWS V14.01,2013-01-13 08:17:00,
2013-01-13 00:22:00,29.5,-2.0,30.08,NW,311,8.1,8.3,25,0.00,,SCT250,0.00,VWS V14.01,2013-01-13 08:22:00,
2013-01-13 00:27:00,29.5,-2.0,30.08,NW,326,8.3,8.3,25,0.00,,SCT250,0.00,VWS V14.01,2013-01-13 08:27:00,
2013-01-13 00:32:00,29.3,-2.2,30.08,NW,315,9.2,11.0,25,0.00,,SCT250,0.00,VWS V14.01,2013-01-13 08:32:00,
2013-01-13 00:37:00,29.1,-2.3,30.08,NW,310,7.6,7.6,25,0.00,,SCT250,0.00,VWS V14.01,2013-01-13 08:37:00,
2013-01-13 00:42:00,28.9,-2.5,30.08,WNW,300,8.1,8.3,25,0.00,,SCT250,0.00,VWS V14.01,2013-01-13 08:42:00,
2013-01-13 00:47:00,28.8,-2.6,30.08,NW,322,8.3,8.7,25,0.00,,SCT250,0.00,VWS V14.01,2013-01-13 08:47:00,
2013-01-13 00:52:00,28.6,-2.8,30.08,NW,311,10.5,10.5,25,0.00,,SCT250,0.00,VWS V14.01,2013-01-13 08:52:00,
2013-01-13 00:57:00,28.4,-2.1,30.08,WNW,286,7.6,9.2,26,0.00,,SCT250,0.00,VWS V14.01,2013-01-13 08:57:00,
2013-01-13 01:02:00,28.4,-2.1,30.08,WNW,285,5.8,10.1,26,0.00,,SCT250,0.00,VWS V14.01,2013-01-13 09:02:00,
2013-01-13 01:07:00,28.2,-2.2,30.08,West,268,4.5,8.1,26,0.00,,SCT250,0.00,VWS V14.01,2013-01-13 09:07:00,
2013-01-13 01:12:00,28.0,-2.4,30.08,WNW,299,3.6,5.4,26,0.00,,SCT250,0.00,VWS V14.01,2013-01-13 09:12:00,
2013-01-13 01:17:00,27.7,-2.7,30.08,West,267,5.8,7.6,26,0.00,,SCT250,0.00,VWS V14.01,2013-01-13 09:17:00,
2013-01-13 01:22:00,27.7,-2.7,30.08,WNW,288,5.4,8.7,26,0.00,,SCT250,0.00,VWS V14.01,2013-01-13 09:22:00,
2013-01-13 01:27:00,27.7,-2.7,30.08,WNW,282,7.6,7.6,26,0.00,,SCT250,0.00,VWS V14.01,2013-01-13 09:27:00,
2013-01-13 01:32:00,27.0,-3.3,30.08,West,270,5.8,5.8,26,0.00,,SCT250,0.00,VWS V14.01,2013-01-13 09:32:00,
2013-01-13 01:37:00,27.0,-3.3,30.08,West,277,8.7,8.7,26,0.00,,SCT250,0.00,VWS V14.01,2013-01-13 09:37:00,
2013-01-13 01:42:00,26.6,-3.7,30.08,West,261,7.6,7.6,26,0.00,,SCT250,0.00,VWS V14.01,2013-01-13 09:42:00,
2013-01-13 01:47:00,26.6,-3.7,30.08,West,261,7.6,7.6,26,0.00,,SCT250,0.00,VWS V14.01,2013-01-13 09:47:00,
2013-01-13 01:52:00,26.6,-3.7,30.08,West,261,7.6,7.6,26,0.00,,SCT250,0.00,VWS V14.01,2013-01-13 09:52:00,
2013-01-13 01:57:00,26.4,-3.8,30.08,WSW,253,8.7,8.7,26,0.00,,SCT250,0.00,VWS V14.01,2013-01-13 09:57:00,
2013-01-13 02:02:00,26.4,-3.8,30.11,WNW,297,8.7,10.1,26,0.00,,SCT250,0.00,VWS V14.01,2013-01-13 10:02:00,
2013-01-13 02:07:00,26.6,-3.7,30.11,WNW,303,8.1,11.0,26,0.00,,SCT250,0.00,VWS V14.01,2013-01-13 10:07:00,
2013-01-13 02:12:00,26.8,-3.5,30.11,NW,317,11.0,11.0,26,0.00,,SCT250,0.00,VWS V14.01,2013-01-13 10:12:00,
2013-01-13 02:17:00,27.1,-3.2,30.11,WNW,285,7.6,8.3,26,0.00,,SCT250,0.00,VWS V14.01,2013-01-13 10:17:00,
2013-01-13 02:22:00,27.3,-3.0,30.11,NW,325,8.7,10.5,26,0.00,,SCT250,0.00,VWS V14.01,2013-01-13 10:22:00,
2013-01-13 02:27:00,27.5,-2.9,30.11,NNW,327,8.1,14.1,26,0.00,,SCT250,0.00,VWS V14.01,2013-01-13 10:27:00,
2013-01-13 02:32:00,27.7,-2.7,30.11,NW,326,10.1,11.0,26,0.00,,SCT250,0.00,VWS V14.01,2013-01-13 10:32:00,
2013-01-13 02:37:00,27.9,-2.6,30.11,NW,308,10.5,15.0,26,0.00,,SCT250,0.00,VWS V14.01,2013-01-13 10:37:00,
2013-01-13 02:42:00,28.0,-2.4,30.11,NW,305,8.1,10.1,26,0.00,,SCT250,0.00,VWS V14.01,2013-01-13 10:42:00,
2013-01-13 02:47:00,28.0,-2.4,30.11,NW,322,7.6,8.7,26,0.00,,SCT250,0.00,VWS V14.01,2013-01-13 10:47:00,
2013-01-13 02:52:00,27.9,-2.6,30.08,WNW,282,8.7,8.7,26,0.00,,SCT250,0.00,VWS V14.01,2013-01-13 10:52:00,
2013-01-13 02:57:00,27.7,-2.7,30.08,NW,312,14.1,14.1,26,0.00,,SCT250,0.00,VWS V14.01,2013-01-13 10:57:00,
2013-01-13 03:02:00,27.5,-2.9,30.08,WNW,298,10.5,12.3,26,0.00,,SCT250,0.00,VWS V14.01,2013-01-13 11:02:00,
2013-01-13 03:07:00,27.3,-3.0,30.08,NW,307,7.6,10.1,26,0.00,,SCT250,0.00,VWS V14.01,2013-01-13 11:07:00,
2013-01-13 03:12:00,27.1,-3.2,30.08,NW,317,11.0,11.4,26,0.00,,SCT250,0.00,VWS V14.01,2013-01-13 11:12:00,
2013-01-13 03:17:00,27.1,-3.2,30.08,NW,319,11.0,11.0,26,0.00,,SCT250,0.00,VWS V14.01,2013-01-13 11:17:00,
2013-01-13 03:22:00,27.1,-3.2,30.08,NNW,328,8.7,12.8,26,0.00,,SCT250,0.00,VWS V14.01,2013-01-13 11:22:00,
2013-01-13 03:27:00,27.1,-3.2,30.08,NW,313,14.1,14.1,26,0.00,,SCT250,0.00,VWS V14.01,2013-01-13 11:27:00,
2013-01-13 03:32:00,27.1,-3.2,30.08,WNW,297,12.8,13.2,26,0.00,,SCT250,0.00,VWS V14.01,2013-01-13 11:32:00,
2013-01-13 03:37:00,27.1,-3.2,30.08,NW,316,13.2,15.4,26,0.00,,SCT250,0.00,VWS V14.01,2013-01-13 11:37:00,
2013-01-13 03:42:00,27.1,-3.2,30.08,NW,318,12.3,12.8,26,0.00,,SCT250,0.00,VWS V14.01,2013-01-13 11:42:00,
2013-01-13 03:47:00,27.1,-3.2,30.08,NW,318,10.1,12.8,26,0.00,,SCT250,0.00,VWS V14.01,2013-01-13 11:47:00,
2013-01-13 03:52:00,27.0,-3.3,30.08,NW,311,10.5,10.5,26,0.00,,SCT250,0.00,VWS V14.01,2013-01-13 11:52:00,
2013-01-13 03:57:00,27.0,-3.3,30.08,NW,309,11.0,13.2,26,0.00,,SCT250,0.00,VWS V14.01,2013-01-13 11:57:00,
2013-01-13 04:02:00,26.8,-3.5,30.08,NW,307,7.6,8.7,26,0.00,,CLR,0.00,VWS V14.01,2013-01-13 12:02:00,
2013-01-13 04:07:00,26.6,-3.7,30.08,NW,326,7.6,7.6,26,0.00,,CLR,0.00,VWS V14.01,2013-01-13 12:07:00,
2013-01-13 04:12:00,26.4,-3.8,30.08,NW,314,11.0,11.0,26,0.00,,CLR,0.00,VWS V14.01,2013-01-13 12:12:00,
2013-01-13 04:17:00,26.2,-4.0,30.08,NW,316,10.5,10.5,26,0.00,,CLR,0.00,VWS V14.01,2013-01-13 12:17:00,
2013-01-13 04:22:00,26.2,-4.0,30.08,NW,306,7.6,8.3,26,0.00,,CLR,0.00,VWS V14.01,2013-01-13 12:22:00,
2013-01-13 04:27:00,26.2,-4.0,30.08,WNW,294,8.7,10.1,26,0.00,,CLR,0.00,VWS V14.01,2013-01-13 12:27:00,
2013-01-13 04:31:00,26.2,-4.0,30.08,WNW,290,8.3,8.3,26,0.00,,CLR,0.00,VWS V14.01,2013-01-13 12:31:00,
2013-01-13 04:36:00,26.2,-4.0,30.08,NNW,334,8.3,8.3,26,0.00,,CLR,0.00,VWS V14.01,2013-01-13 12:36:00,
2013-01-13 04:41:00,26.2,-4.0,30.08,WNW,299,8.1,8.1,26,0.00,,CLR,0.00,VWS V14.01,2013-01-13 12:41:00,
2013-01-13 04:46:00,26.2,-4.0,30.08,WNW,297,5.8,5.8,26,0.00,,CLR,0.00,VWS V14.01,2013-01-13 12:46:00,
2013-01-13 04:51:00,26.2,-4.0,30.08,WNW,299,5.8,5.8,26,0.00,,CLR,0.00,VWS V14.01,2013-01-13 12:51:00,
2013-01-13 04:56:00,26.1,-4.1,30.08,NW,316,3.6,5.8,26,0.00,,CLR,0.00,VWS V14.01,2013-01-13 12:56:00,
2013-01-13 05:01:00,25.7,-4.4,30.08,NW,318,5.4,5.4,26,0.00,,CLR,0.00,VWS V14.01,2013-01-13 13:01:00,
2013-01-13 05:06:00,25.5,-4.6,30.08,NNW,343,5.4,5.8,26,0.00,,CLR,0.00,VWS V14.01,2013-01-13 13:06:00,
2013-01-13 05:11:00,25.5,-4.6,30.08,North,0,2.7,4.0,26,0.00,,CLR,0.00,VWS V14.01,2013-01-13 13:11:00,
2013-01-13 05:16:00,25.0,-5.1,30.08,NW,325,0.0,0.0,26,0.00,,CLR,0.00,VWS V14.01,2013-01-13 13:16:00,
2013-01-13 05:21:00,24.6,-4.6,30.08,NNW,329,4.0,6.3,27,0.00,,CLR,0.00,VWS V14.01,2013-01-13 13:21:00,
2013-01-13 05:26:00,24.4,-4.7,30.08,NW,305,7.6,8.1,27,0.00,,CLR,0.00,VWS V14.01,2013-01-13 13:26:00,
2013-01-13 05:31:00,24.6,-4.6,30.08,NW,309,5.8,6.3,27,0.00,,CLR,0.00,VWS V14.01,2013-01-13 13:31:00,
2013-01-13 05:36:00,24.6,-4.6,30.08,NW,306,7.2,8.1,27,0.00,,CLR,0.00,VWS V14.01,2013-01-13 13:36:00,
2013-01-13 05:41:00,24.6,-4.6,30.08,NW,308,6.3,8.1,27,0.00,,CLR,0.00,VWS V14.01,2013-01-13 13:41:00,
2013-01-13 05:46:00,24.6,-4.6,30.08,NW,306,11.9,11.9,27,0.00,,CLR,0.00,VWS V14.01,2013-01-13 13:46:00,
2013-01-13 05:51:00,24.8,-4.4,30.08,WNW,301,4.9,6.3,27,0.00,,CLR,0.00,VWS V14.01,2013-01-13 13:51:00,
2013-01-13 05:56:00,24.6,-4.6,30.08,NW,309,5.4,7.6,27,0.00,,CLR,0.00,VWS V14.01,2013-01-13 13:56:00,
2013-01-13 06:01:00,24.4,-4.7,30.08,NW,316,4.0,5.4,27,0.00,,CLR,0.00,VWS V14.01,2013-01-13 14:01:00,
2013-01-13 06:06:00,24.3,-4.9,30.08,NW,314,5.4,5.8,27,0.00,,CLR,0.00,VWS V14.01,2013-01-13 14:06:00,
2013-01-13 06:11:00,23.9,-5.2,30.08,NNW,327,5.4,5.8,27,0.00,,CLR,0.00,VWS V14.01,2013-01-13 14:11:00,
2013-01-13 06:16:00,23.7,-5.4,30.08,NW,312,5.8,5.8,27,0.00,,CLR,0.00,VWS V14.01,2013-01-13 14:16:00,
2013-01-13 06:21:00,23.5,-5.5,30.11,NNW,331,2.7,4.9,27,0.00,,CLR,0.00,VWS V14.01,2013-01-13 14:21:00,
2013-01-13 06:26:00,23.4,-5.7,30.11,WNW,299,8.3,8.3,27,0.00,,CLR,0.00,VWS V14.01,2013-01-13 14:26:00,
2013-01-13 06:31:00,23.4,-5.7,30.11,NNW,341,5.4,6.3,27,0.00,,CLR,0.00,VWS V14.01,2013-01-13 14:31:00,
2013-01-13 06:36:00,23.5,-5.5,30.11,NW,314,7.6,8.7,27,0.00,,CLR,0.00,VWS V14.01,2013-01-13 14:36:00,
2013-01-13 06:41:00,24.1,-5.1,30.11,NW,322,6.3,8.1,27,0.00,,CLR,0.00,VWS V14.01,2013-01-13 14:41:00,
2013-01-13 06:46:00,24.1,-5.1,30.11,WNW,301,6.3,8.1,27,0.00,,CLR,0.00,VWS V14.01,2013-01-13 14:46:00,
2013-01-13 06:51:00,24.1,-5.1,30.11,WNW,293,5.8,8.7,27,0.00,,CLR,0.00,VWS V14.01,2013-01-13 14:51:00,
2013-01-13 06:56:00,24.3,-4.9,30.11,NW,320,8.3,8.3,27,0.00,,CLR,0.00,VWS V14.01,2013-01-13 14:56:00,
2013-01-13 07:01:00,24.4,-4.7,30.11,NW,309,7.6,8.7,27,0.00,,CLR,0.00,VWS V14.01,2013-01-13 15:01:00,
2013-01-13 07:06:00,24.4,-4.7,30.11,NW,308,8.3,9.2,27,0.00,,CLR,0.00,VWS V14.01,2013-01-13 15:06:00,
2013-01-13 07:11:00,24.6,-4.6,30.11,NW,304,7.6,8.7,27,0.00,,CLR,0.00,VWS V14.01,2013-01-13 15:11:00,
2013-01-13 07:16:00,24.8,-4.4,30.11,NW,309,6.3,8.7,27,0.00,,CLR,0.00,VWS V14.01,2013-01-13 15:16:00,
2013-01-13 07:21:00,24.8,-4.4,30.11,NW,304,7.6,8.7,27,0.00,,CLR,0.00,VWS V14.01,2013-01-13 15:21:00,
2013-01-13 07:26:00,25.0,-5.1,30.11,NW,306,5.4,8.1,26,0.00,,CLR,0.00,VWS V14.01,2013-01-13 15:26:00,
2013-01-13 07:31:00,25.2,-4.9,30.11,NW,309,7.6,8.7,26,0.00,,CLR,0.00,VWS V14.01,2013-01-13 15:31:00,
2013-01-13 07:36:00,25.3,-4.7,30.11,WNW,302,4.0,5.8,26,0.00,,CLR,0.00,VWS V14.01,2013-01-13 15:36:00,
2013-01-13 07:41:00,25.7,-4.4,30.11,WNW,303,6.3,6.3,26,0.00,,CLR,0.00,VWS V14.01,2013-01-13 15:41:00,
2013-01-13 07:46:00,26.2,-4.0,30.11,NW,313,0.0,0.0,26,0.00,,CLR,0.00,VWS V14.01,2013-01-13 15:46:00,
2013-01-13 07:51:00,27.0,-3.3,30.11,NW,311,0.0,0.0,26,0.00,,CLR,0.00,VWS V14.01,2013-01-13 15:51:00,
2013-01-13 07:56:00,27.3,-3.0,30.11,NW,307,2.2,3.6,26,0.00,,CLR,0.00,VWS V14.01,2013-01-13 15:56:00,
2013-01-13 08:01:00,28.2,-2.2,30.11,NNW,337,0.0,0.0,26,0.00,,FEW250,0.00,VWS V14.01,2013-01-13 16:01:00,
2013-01-13 08:06:00,28.8,-2.6,30.14,NNW,341,0.0,0.0,25,0.00,,FEW250,0.00,VWS V14.01,2013-01-13 16:06:00,
2013-01-13 08:11:00,29.5,-2.0,30.14,NNW,341,0.0,0.0,25,0.00,,FEW250,0.00,VWS V14.01,2013-01-13 16:11:00,
2013-01-13 08:16:00,30.2,-1.4,30.14,NNW,332,4.0,4.0,25,0.00,,FEW250,0.00,VWS V14.01,2013-01-13 16:16:00,
2013-01-13 08:21:00,30.7,-0.9,30.11,NNW,345,5.8,5.8,25,0.00,,FEW250,0.00,VWS V14.01,2013-01-13 16:21:00,
2013-01-13 08:26:00,30.9,-0.8,30.11,North,0,5.4,5.4,25,0.00,,FEW250,0.00,VWS V14.01,2013-01-13 16:26:00,
2013-01-13 08:31:00,30.9,-0.8,30.11,North,0,5.4,5.4,25,0.00,,FEW250,0.00,VWS V14.01,2013-01-13 16:31:00,
2013-01-13 08:36:00,30.9,-0.8,30.11,North,0,5.4,5.4,25,0.00,,FEW250,0.00,VWS V14.01,2013-01-13 16:36:00,
2013-01-13 08:41:00,30.9,-0.8,30.11,North,0,5.4,5.4,25,0.00,,FEW250,0.00,VWS V14.01,2013-01-13 16:41:00,
2013-01-13 08:46:00,30.9,-0.8,30.11,North,0,5.4,5.4,25,0.00,,FEW250,0.00,VWS V14.01,2013-01-13 16:46:00,
2013-01-13 08:51:00,31.6,-0.1,30.11,North,0,5.4,5.4,25,0.00,,FEW250,0.00,VWS V14.01,2013-01-13 16:51:00,
2013-01-13 08:56:00,31.6,-0.1,30.11,North,0,5.4,5.4,25,0.00,,FEW250,0.00,VWS V14.01,2013-01-13 16:56:00,
2013-01-13 09:01:00,31.6,-0.1,30.11,NNW,336,3.1,3.1,25,0.00,,FEW250,0.00,VWS V14.01,2013-01-13 17:01:00,
2013-01-13 09:06:00,33.3,1.2,30.11,NNW,336,3.1,3.1,25,0.00,,FEW250,0.00,VWS V14.01,2013-01-13 17:06:00,
2013-01-13 09:11:00,33.3,1.2,30.11,NNW,336,3.1,3.1,25,0.00,,FEW250,0.00,VWS V14.01,2013-01-13 17:11:00,
2013-01-13 09:16:00,34.5,2.3,30.11,North,1,3.6,3.6,25,0.00,,FEW250,0.00,VWS V14.01,2013-01-13 17:16:00,
2013-01-13 09:21:00,35.2,3.0,30.11,North,1,3.6,3.6,25,0.00,,FEW250,0.00,VWS V14.01,2013-01-13 17:21:00,
2013-01-13 09:26:00,34.9,2.6,30.11,North,1,3.6,3.6,25,0.00,,FEW250,0.00,VWS V14.01,2013-01-13 17:26:00,
2013-01-13 09:31:00,34.9,2.6,30.11,North,1,3.6,3.6,25,0.00,,FEW250,0.00,VWS V14.01,2013-01-13 17:31:00,
2013-01-13 09:36:00,34.5,2.3,30.11,North,1,3.6,3.6,25,0.00,,FEW250,0.00,VWS V14.01,2013-01-13 17:36:00,
2013-01-13 09:41:00,34.5,2.3,30.11,North,1,3.6,3.6,25,0.00,,FEW250,0.00,VWS V14.01,2013-01-13 17:41:00,
2013-01-13 09:46:00,33.8,1.7,30.11,NNE,33,5.4,6.3,25,0.00,,FEW250,0.00,VWS V14.01,2013-01-13 17:46:00,
2013-01-13 09:51:00,33.4,1.4,30.11,East,83,4.0,5.4,25,0.00,,FEW250,0.00,VWS V14.01,2013-01-13 17:51:00,
2013-01-13 09:56:00,33.3,1.2,30.11,ENE,76,4.9,5.8,25,0.00,,FEW250,0.00,VWS V14.01,2013-01-13 17:56:00,
2013-01-13 10:01:00,33.1,1.1,30.11,East,86,4.0,4.5,25,0.00,,BKN250,0.00,VWS V14.01,2013-01-13 18:01:00,
2013-01-13 10:06:00,32.7,0.8,30.11,ENE,70,0.0,0.0,25,0.00,,BKN250,0.00,VWS V14.01,2013-01-13 18:06:00,
2013-01-13 10:11:00,33.8,1.7,30.11,NNE,21,5.4,6.7,25,0.00,,BKN250,0.00,VWS V14.01,2013-01-13 18:11:00,
2013-01-13 10:16:00,33.8,1.7,30.11,NNE,33,0.0,0.0,25,0.00,,BKN250,0.00,VWS V14.01,2013-01-13 18:16:00,
2013-01-13 10:21:00,33.8,1.7,30.11,East,92,5.8,5.8,25,0.00,,BKN250,0.00,VWS V14.01,2013-01-13 18:21:00,
2013-01-13 10:26:00,33.4,1.4,30.11,NE,45,0.0,0.0,25,0.00,,BKN250,0.00,VWS V14.01,2013-01-13 18:26:00,
2013-01-13 10:31:00,34.5,2.3,30.11,NNE,28,0.0,3.6,25,0.00,,BKN250,0.00,VWS V14.01,2013-01-13 18:31:00,
2013-01-13 10:36:00,34.7,2.5,30.11,ENE,66,0.0,0.0,25,0.00,,BKN250,0.00,VWS V14.01,2013-01-13 18:36:00,
2013-01-13 10:41:00,35.1,2.8,30.11,ENE,74,0.0,0.0,25,0.00,,BKN250,0.00,VWS V14.01,2013-01-13 18:41:00,
2013-01-13 10:46:00,35.8,2.5,30.11,ENE,73,3.1,3.1,24,0.00,,BKN250,0.00,VWS V14.01,2013-01-13 18:46:00,
2013-01-13 10:50:00,36.1,2.8,30.11,East,81,0.0,0.0,24,0.00,,BKN250,0.00,VWS V14.01,2013-01-13 18:50:00,
2013-01-13 10:55:00,36.7,3.3,30.11,NNE,19,5.4,6.3,24,0.00,,BKN250,0.00,VWS V14.01,2013-01-13 18:55:00,
2013-01-13 11:00:00,36.7,3.3,30.11,East,84,0.0,0.0,24,0.00,,BKN250,0.00,VWS V14.01,2013-01-13 19:00:00,
2013-01-13 11:05:00,37.2,3.8,30.08,East,83,0.0,0.0,24,0.00,,BKN250,0.00,VWS V14.01,2013-01-13 19:05:00,
2013-01-13 11:10:00,37.0,3.6,30.08,NE,54,0.0,0.0,24,0.00,,BKN250,0.00,VWS V14.01,2013-01-13 19:10:00,
2013-01-13 11:15:00,37.0,3.6,30.08,ENE,75,0.0,0.0,24,0.00,,BKN250,0.00,VWS V14.01,2013-01-13 19:15:00,
2013-01-13 11:20:00,37.0,3.6,30.08,ESE,102,0.0,0.0,24,0.00,,BKN250,0.00,VWS V14.01,2013-01-13 19:20:00,
2013-01-13 11:25:00,38.5,4.8,30.08,East,89,5.8,8.1,24,0.00,,BKN250,0.00,VWS V14.01,2013-01-13 19:25:00,
2013-01-13 11:30:00,38.5,4.8,30.08,East,88,3.6,4.0,24,0.00,,BKN250,0.00,VWS V14.01,2013-01-13 19:30:00,
2013-01-13 11:35:00,37.9,4.4,30.08,ESE,113,2.2,3.1,24,0.00,,BKN250,0.00,VWS V14.01,2013-01-13 19:35:00,
2013-01-13 11:40:00,37.4,3.9,30.08,ESE,116,3.6,3.6,24,0.00,,BKN250,0.00,VWS V14.01,2013-01-13 19:40:00,
2013-01-13 11:45:00,36.7,3.3,30.08,East,99,2.7,4.0,24,0.00,,BKN250,0.00,VWS V14.01,2013-01-13 19:45:00,
2013-01-13 11:50:00,37.4,3.9,30.08,East,93,0.0,5.4,24,0.00,,BKN250,0.00,VWS V14.01,2013-01-13 19:50:00,
2013-01-13 11:55:00,37.0,3.6,30.08,ESE,116,5.8,5.8,24,0.00,,BKN250,0.00,VWS V14.01,2013-01-13 19:55:00,
2013-01-13 12:00:00,36.5,3.2,30.08,NE,40,4.0,5.8,24,0.00,,BKN250,0.00,VWS V14.01,2013-01-13 20:00:00,
2013-01-13 12:05:00,36.9,3.5,30.05,ESE,107,5.4,5.8,24,0.00,,BKN250,0.00,VWS V14.01,2013-01-13 20:05:00,
2013-01-13 12:10:00,36.3,3.0,30.05,East,86,4.0,5.4,24,0.00,,BKN250,0.00,VWS V14.01,2013-01-13 20:10:00,
2013-01-13 12:15:00,36.3,3.0,30.05,SE,135,2.7,3.6,24,0.00,,BKN250,0.00,VWS V14.01,2013-01-13 20:15:00,
2013-01-13 12:20:00,36.3,3.0,30.05,ENE,62,4.0,6.3,24,0.00,,BKN250,0.00,VWS V14.01,2013-01-13 20:20:00,
2013-01-13 12:25:00,36.3,3.0,30.05,NE,45,5.4,6.3,24,0.00,,BKN250,0.00,VWS V14.01,2013-01-13 20:25:00,
2013-01-13 12:30:00,37.0,3.6,30.05,NE,47,4.0,5.4,24,0.00,,BKN250,0.00,VWS V14.01,2013-01-13 20:30:00,
2013-01-13 12:35:00,38.7,5.0,30.05,NE,45,3.1,5.4,24,0.00,,BKN250,0.00,VWS V14.01,2013-01-13 20:35:00,
2013-01-13 12:40:00,38.5,4.8,30.05,NNW,329,3.6,4.9,24,0.00,,BKN250,0.00,VWS V14.01,2013-01-13 20:40:00,
2013-01-13 12:45:00,40.3,5.4,30.05,NNE,15,0.0,3.6,23,0.00,,BKN250,0.00,VWS V14.01,2013-01-13 20:45:00,
2013-01-13 12:50:00,40.5,5.6,30.05,ENE,76,8.3,8.7,23,0.00,,BKN250,0.00,VWS V14.01,2013-01-13 20:50:00,
2013-01-13 12:55:00,39.0,5.3,30.05,NNE,15,2.7,4.9,24,0.00,,BKN250,0.00,VWS V14.01,2013-01-13 20:55:00,
2013-01-13 13:00:00,39.7,5.0,30.05,South,170,0.0,0.0,23,0.00,,BKN250,0.00,VWS V14.01,2013-01-13 21:00:00,
2013-01-13 13:05:00,39.7,5.0,30.05,SE,131,2.7,3.6,23,0.00,,BKN250,0.00,VWS V14.01,2013-01-13 21:05:00,
2013-01-13 13:10:00,39.4,4.7,30.05,SE,125,5.8,5.8,23,0.00,,BKN250,0.00,VWS V14.01,2013-01-13 21:10:00,
2013-01-13 13:15:00,38.8,5.2,30.05,East,81,0.0,0.0,24,0.00,,BKN250,0.00,VWS V14.01,2013-01-13 21:15:00,
2013-01-13 13:20:00,38.7,5.0,30.05,East,98,5.4,6.3,24,0.00,,BKN250,0.00,VWS V14.01,2013-01-13 21:20:00,
2013-01-13 13:25:00,37.9,4.4,30.05,ESE,103,4.0,5.8,24,0.00,,BKN250,0.00,VWS V14.01,2013-01-13 21:25:00,
2013-01-13 13:30:00,37.6,4.1,30.05,SSE,152,5.8,8.3,24,0.00,,BKN250,0.00,VWS V14.01,2013-01-13 21:30:00,
2013-01-13 13:35:00,37.9,4.4,30.05,SE,129,3.6,5.8,24,0.00,,BKN250,0.00,VWS V14.01,2013-01-13 21:35:00,
2013-01-13 13:40:00,38.1,4.5,30.05,SSE,166,6.3,6.3,24,0.00,,BKN250,0.00,VWS V14.01,2013-01-13 21:40:00,
2013-01-13 13:45:00,38.5,4.8,30.05,SSE,156,5.8,6.3,24,0.00,,BKN250,0.00,VWS V14.01,2013-01-13 21:45:00,
2013-01-13 13:50:00,38.5,4.8,30.05,ESE,120,5.4,5.4,24,0.00,,BKN250,0.00,VWS V14.01,2013-01-13 21:50:00,
2013-01-13 13:55:00,38.7,5.0,30.05,SE,130,0.0,0.0,24,0.00,,BKN250,0.00,VWS V14.01,2013-01-13 21:55:00,
2013-01-13 14:00:00,39.4,4.7,30.05,West,260,4.9,4.9,23,0.00,,BKN250,0.00,VWS V14.01,2013-01-13 22:00:00,
2013-01-13 14:05:00,40.6,5.8,30.05,SE,146,5.8,7.6,23,0.00,,BKN250,0.00,VWS V14.01,2013-01-13 22:05:00,
2013-01-13 14:10:00,39.7,5.0,30.05,South,175,6.3,8.1,23,0.00,,BKN250,0.00,VWS V14.01,2013-01-13 22:10:00,
2013-01-13 14:15:00,39.0,5.3,30.05,SE,136,5.4,5.8,24,0.00,,BKN250,0.00,VWS V14.01,2013-01-13 22:15:00,
2013-01-13 14:20:00,38.8,5.2,30.05,SSE,153,3.6,4.0,24,0.00,,BKN250,0.00,VWS V14.01,2013-01-13 22:20:00,
2013-01-13 14:25:00,38.7,5.0,30.05,SSE,166,4.0,6.3,24,0.00,,BKN250,0.00,VWS V14.01,2013-01-13 22:25:00,
2013-01-13 14:30:00,38.7,5.0,30.05,SSE,168,0.0,0.0,24,0.00,,BKN250,0.00,VWS V14.01,2013-01-13 22:30:00,
2013-01-13 14:35:00,39.6,4.8,30.05,SE,145,4.0,4.9,23,0.00,,BKN250,0.00,VWS V14.01,2013-01-13 22:35:00,
2013-01-13 14:40:00,39.7,5.0,30.05,SSE,160,0.0,0.0,23,0.00,,BKN250,0.00,VWS V14.01,2013-01-13 22:40:00,
2013-01-13 14:45:00,39.9,5.1,30.05,East,99,2.7,5.4,23,0.00,,BKN250,0.00,VWS V14.01,2013-01-13 22:45:00,
2013-01-13 14:50:00,39.4,4.7,30.05,East,85,0.0,0.0,23,0.00,,BKN250,0.00,VWS V14.01,2013-01-13 22:50:00,
2013-01-13 14:55:00,39.9,5.1,30.05,SE,130,0.0,0.0,23,0.00,,BKN250,0.00,VWS V14.01,2013-01-13 22:55:00,
2013-01-13 15:00:00,39.4,4.7,30.05,South,179,4.0,4.0,23,0.00,,BKN250,0.00,VWS V14.01,2013-01-13 23:00:00,
2013-01-13 15:05:00,39.4,4.7,30.05,SSE,153,3.6,8.1,23,0.00,,BKN250,0.00,VWS V14.01,2013-01-13 23:05:00,
2013-01-13 15:10:00,39.2,4.5,30.05,SSE,168,3.1,4.5,23,0.00,,BKN250,0.00,VWS V14.01,2013-01-13 23:10:00,
2013-01-13 15:15:00,39.0,5.3,30.05,South,184,0.0,0.0,24,0.00,,BKN250,0.00,VWS V14.01,2013-01-13 23:15:00,
2013-01-13 15:20:00,39.0,5.3,30.05,SSE,158,2.7,3.6,24,0.00,,BKN250,0.00,VWS V14.01,2013-01-13 23:20:00,
2013-01-13 15:25:00,38.7,5.0,30.05,South,176,0.0,0.0,24,0.00,,BKN250,0.00,VWS V14.01,2013-01-13 23:25:00,
2013-01-13 15:30:00,38.5,4.8,30.05,South,185,3.1,3.6,24,0.00,,BKN250,0.00,VWS V14.01,2013-01-13 23:30:00,
2013-01-13 15:35:00,38.7,5.0,30.05,South,176,4.0,5.4,24,0.00,,BKN250,0.00,VWS V14.01,2013-01-13 23:35:00,
2013-01-13 15:40:00,38.5,4.8,30.05,South,188,5.8,5.8,24,0.00,,BKN250,0.00,VWS V14.01,2013-01-13 23:40:00,
2013-01-13 15:45:00,38.1,4.5,30.05,South,188,5.4,5.4,24,0.00,,BKN250,0.00,VWS V14.01,2013-01-13 23:45:00,
2013-01-13 15:50:00,38.3,4.7,30.05,WSW,258,5.8,6.3,24,0.00,,BKN250,0.00,VWS V14.01,2013-01-13 23:50:00,
2013-01-13 15:55:00,39.2,4.5,30.05,SW,219,7.2,7.2,23,0.00,,BKN250,0.00,VWS V14.01,2013-01-13 23:55:00,
2013-01-13 16:00:00,38.5,4.8,30.05,SSW,196,4.9,4.9,24,0.00,,SCT250,0.00,VWS V14.01,2013-01-14 00:00:00,
2013-01-13 16:05:00,38.1,4.5,30.05,South,186,2.7,4.0,24,0.00,,SCT250,0.00,VWS V14.01,2013-01-14 00:05:00,
2013-01-13 16:10:00,38.1,4.5,30.05,South,184,4.9,4.9,24,0.00,,SCT250,0.00,VWS V14.01,2013-01-14 00:10:00,
2013-01-13 16:15:00,37.8,4.2,30.05,South,186,2.7,2.7,24,0.00,,SCT250,0.00,VWS V14.01,2013-01-14 00:15:00,
2013-01-13 16:20:00,37.6,4.1,30.05,WSW,249,5.8,5.8,24,0.00,,SCT250,0.00,VWS V14.01,2013-01-14 00:20:00,
2013-01-13 16:25:00,37.8,4.2,30.05,SSW,201,3.6,5.4,24,0.00,,SCT250,0.00,VWS V14.01,2013-01-14 00:25:00,
2013-01-13 16:30:00,37.6,4.1,30.05,WSW,240,3.6,4.0,24,0.00,,SCT250,0.00,VWS V14.01,2013-01-14 00:30:00,
2013-01-13 16:35:00,37.4,3.9,30.05,WSW,254,4.9,4.9,24,0.00,,SCT250,0.00,VWS V14.01,2013-01-14 00:35:00,
2013-01-13 16:40:00,37.4,3.9,30.05,West,275,6.3,6.7,24,0.00,,SCT250,0.00,VWS V14.01,2013-01-14 00:40:00,
2013-01-13 16:45:00,37.4,3.9,30.05,West,271,7.2,7.6,24,0.00,,SCT250,0.00,VWS V14.01,2013-01-14 00:45:00,
2013-01-13 16:50:00,37.0,3.6,30.05,West,268,6.3,8.7,24,0.00,,SCT250,0.00,VWS V14.01,2013-01-14 00:50:00,
2013-01-13 16:55:00,36.7,3.3,30.05,West,269,7.6,8.1,24,0.00,,SCT250,0.00,VWS V14.01,2013-01-14 00:55:00,
2013-01-13 17:00:00,36.5,3.2,30.05,SW,233,5.8,6.7,24,0.00,,SCT250,0.00,VWS V14.01,2013-01-14 01:00:00,
2013-01-13 17:05:00,36.3,3.0,30.05,SW,217,5.4,5.4,24,0.00,,SCT250,0.00,VWS V14.01,2013-01-14 01:05:00,
2013-01-13 17:10:00,36.1,2.8,30.05,WSW,237,5.4,5.4,24,0.00,,SCT250,0.00,VWS V14.01,2013-01-14 01:10:00,
2013-01-13 17:15:00,36.0,2.7,30.05,SSE,152,4.0,4.0,24,0.00,,SCT250,0.00,VWS V14.01,2013-01-14 01:15:00,
2013-01-13 17:20:00,35.6,2.4,30.05,ESE,106,5.4,6.3,24,0.00,,SCT250,0.00,VWS V14.01,2013-01-14 01:20:00,
2013-01-13 17:25:00,35.1,2.8,30.05,East,83,4.0,4.9,25,0.00,,SCT250,0.00,VWS V14.01,2013-01-14 01:25:00,
2013-01-13 17:30:00,34.9,2.6,30.05,ESE,104,3.6,4.9,25,0.00,,SCT250,0.00,VWS V14.01,2013-01-14 01:30:00,
2013-01-13 17:35:00,34.7,2.5,30.08,ESE,112,3.6,3.6,25,0.00,,SCT250,0.00,VWS V14.01,2013-01-14 01:35:00,
2013-01-13 17:40:00,34.7,2.5,30.08,NE,56,5.4,5.8,25,0.00,,SCT250,0.00,VWS V14.01,2013-01-14 01:40:00,
2013-01-13 17:44:00,34.5,2.3,30.08,NE,48,3.6,3.6,25,0.00,,SCT250,0.00,VWS V14.01,2013-01-14 01:44:00,
2013-01-13 17:49:00,34.3,2.2,30.08,NNE,33,4.9,4.9,25,0.00,,SCT250,0.00,VWS V14.01,2013-01-14 01:49:00,
2013-01-13 17:54:00,34.2,2.0,30.08,NE,47,5.8,5.8,25,0.00,,SCT250,0.00,VWS V14.01,2013-01-14 01:54:00,
2013-01-13 17:59:00,34.0,1.9,30.08,ENE,61,4.0,8.3,25,0.00,,BKN250,0.00,VWS V14.01,2013-01-14 01:59:00,
2013-01-13 18:04:00,33.8,1.7,30.08,NE,44,2.7,4.0,25,0.00,,BKN250,0.00,VWS V14.01,2013-01-14 02:04:00,
2013-01-13 18:09:00,33.8,1.7,30.08,NNE,31,2.2,3.6,25,0.00,,BKN250,0.00,VWS V14.01,2013-01-14 02:09:00,
2013-01-13 18:14:00,33.6,1.6,30.08,NE,44,4.5,4.5,25,0.00,,BKN250,0.00,VWS V14.01,2013-01-14 02:14:00,
2013-01-13 18:19:00,33.4,1.4,30.08,NNE,30,0.0,0.0,25,0.00,,BKN250,0.00,VWS V14.01,2013-01-14 02:19:00,
2013-01-13 18:24:00,33.4,1.4,30.08,North,0,0.0,3.1,25,0.00,,BKN250,0.00,VWS V14.01,2013-01-14 02:24:00,
2013-01-13 18:29:00,33.3,1.2,30.08,North,0,0.0,0.0,25,0.00,,BKN250,0.00,VWS V14.01,2013-01-14 02:29:00,
2013-01-13 18:34:00,33.3,1.2,30.08,NW,315,0.0,0.0,25,0.00,,BKN250,0.00,VWS V14.01,2013-01-14 02:34:00,
2013-01-13 18:39:00,33.1,1.1,30.08,NW,318,0.0,0.0,25,0.00,,BKN250,0.00,VWS V14.01,2013-01-14 02:39:00,
2013-01-13 18:44:00,33.1,1.1,30.08,NW,319,0.0,0.0,25,0.00,,BKN250,0.00,VWS V14.01,2013-01-14 02:44:00,
2013-01-13 18:48:00,95.0,38.4,27.43,SW,227,6.3,6.3,14,0.00,,,0.00,VWS V14.01,2013-01-14 02:48:00,
2013-01-13 18:49:00,33.1,1.1,30.08,ENE,76,0.0,3.1,25,0.00,,BKN250,0.00,VWS V14.01,2013-01-14 02:49:00,
2013-01-13 18:54:00,33.1,1.1,30.08,NE,38,5.8,5.8,25,0.00,,BKN250,0.00,VWS V14.01,2013-01-14 02:54:00,
2013-01-13 18:59:00,33.1,1.1,30.08,North,353,0.0,2.2,25,0.00,,BKN250,0.00,VWS V14.01,2013-01-14 02:59:00,
2013-01-13 19:04:00,32.5,0.6,30.08,NW,318,5.4,5.4,25,0.00,,BKN250,0.00,VWS V14.01,2013-01-14 03:04:00,
2013-01-13 19:09:00,32.4,0.5,30.08,NW,312,0.0,0.0,25,0.00,,BKN250,0.00,VWS V14.01,2013-01-14 03:09:00,
2013-01-13 19:14:00,32.2,0.3,30.08,NW,312,0.0,0.0,25,0.00,,BKN250,0.00,VWS V14.01,2013-01-14 03:14:00,
2013-01-13 19:19:00,32.2,0.3,30.08,NW,312,0.0,0.0,25,0.00,,BKN250,0.00,VWS V14.01,2013-01-14 03:19:00,
2013-01-13 19:24:00,31.8,0.0,30.08,NW,312,0.0,0.0,25,0.00,,BKN250,0.00,VWS V14.01,2013-01-14 03:24:00,
2013-01-13 19:29:00,32.0,0.2,30.08,NW,312,0.0,0.0,25,0.00,,BKN250,0.00,VWS V14.01,2013-01-14 03:29:00,
2013-01-13 19:34:00,32.0,0.2,30.08,WNW,298,0.0,0.0,25,0.00,,BKN250,0.00,VWS V14.01,2013-01-14 03:34:00,
2013-01-13 19:39:00,32.4,0.5,30.08,WNW,298,0.0,0.0,25,0.00,,BKN250,0.00,VWS V14.01,2013-01-14 03:39:00,
2013-01-13 19:44:00,32.2,0.3,30.08,WNW,298,0.0,0.0,25,0.00,,BKN250,0.00,VWS V14.01,2013-01-14 03:44:00,
2013-01-13 19:48:00,95.0,38.4,27.43,SW,227,6.3,6.3,14,0.00,,,0.00,VWS V14.01,2013-01-14 03:48:00,
2013-01-13 19:49:00,32.2,0.3,30.08,West,271,3.1,3.1,25,0.00,,BKN250,0.00,VWS V14.01,2013-01-14 03:49:00,
2013-01-13 19:54:00,32.0,0.2,30.08,West,271,3.1,3.1,25,0.00,,BKN250,0.00,VWS V14.01,2013-01-14 03:54:00,
2013-01-13 19:59:00,31.5,-0.3,30.08,SW,231,0.0,0.0,25,0.00,,BKN250,0.00,VWS V14.01,2013-01-14 03:59:00,
2013-01-13 20:04:00,31.1,-0.6,30.08,NE,36,0.0,0.0,25,0.00,,BKN250,0.00,VWS V14.01,2013-01-14 04:04:00,
2013-01-13 20:09:00,30.7,-0.9,30.08,NE,37,0.0,0.0,25,0.00,,BKN250,0.00,VWS V14.01,2013-01-14 04:09:00,
2013-01-13 20:14:00,30.6,-1.1,30.08,NE,37,0.0,0.0,25,0.00,,BKN250,0.00,VWS V14.01,2013-01-14 04:14:00,
2013-01-13 20:19:00,30.6,-1.1,30.11,NE,36,0.0,0.0,25,0.00,,BKN250,0.00,VWS V14.01,2013-01-14 04:19:00,
2013-01-13 20:24:00,30.4,-1.2,30.11,NE,36,0.0,0.0,25,0.00,,BKN250,0.00,VWS V14.01,2013-01-14 04:24:00,
2013-01-13 20:29:00,30.4,-1.2,30.11,NE,36,0.0,0.0,25,0.00,,BKN250,0.00,VWS V14.01,2013-01-14 04:29:00,
2013-01-13 20:34:00,30.6,-1.1,30.11,NE,36,0.0,0.0,25,0.00,,BKN250,0.00,VWS V14.01,2013-01-14 04:34:00,
2013-01-13 20:39:00,30.6,-1.1,30.11,NE,36,0.0,0.0,25,0.00,,BKN250,0.00,VWS V14.01,2013-01-14 04:39:00,
2013-01-13 20:44:00,30.4,-1.2,30.11,NE,39,4.0,4.0,25,0.00,,BKN250,0.00,VWS V14.01,2013-01-14 04:44:00,
2013-01-13 20:49:00,30.0,-1.5,30.11,NE,39,4.0,4.0,25,0.00,,BKN250,0.00,VWS V14.01,2013-01-14 04:49:00,
2013-01-13 20:54:00,30.0,-1.5,30.11,NE,39,4.0,4.0,25,0.00,,BKN250,0.00,VWS V14.01,2013-01-14 04:54:00,
2013-01-13 20:59:00,30.0,-1.5,30.11,NE,39,4.0,4.0,25,0.00,,BKN250,0.00,VWS V14.01,2013-01-14 04:59:00,
2013-01-13 21:00:00,30.0,-1.5,30.11,NE,39,4.0,4.0,25,0.00,,BKN250,0.00,VWS V14.01,2013-01-14 05:00:00,
2013-01-13 21:01:00,30.0,-1.5,30.11,NE,39,4.0,4.0,25,0.00,,BKN250,0.00,VWS V14.01,2013-01-14 05:01:00,
2013-01-13 21:02:00,29.8,-1.7,30.11,NE,37,8.3,8.3,25,0.00,,BKN250,0.00,VWS V14.01,2013-01-14 05:02:00,
2013-01-13 21:07:00,29.7,-1.8,30.11,ENE,63,0.0,0.0,25,0.00,,BKN250,0.00,VWS V14.01,2013-01-14 05:07:00,
2013-01-13 21:12:00,29.7,-1.8,30.11,ENE,63,0.0,0.0,25,0.00,,BKN250,0.00,VWS V14.01,2013-01-14 05:12:00,
2013-01-13 21:17:00,29.7,-1.8,30.11,NE,47,6.3,6.3,25,0.00,,BKN250,0.00,VWS V14.01,2013-01-14 05:17:00,
2013-01-13 21:22:00,29.7,-1.8,30.11,NE,47,6.3,6.3,25,0.00,,BKN250,0.00,VWS V14.01,2013-01-14 05:22:00,
2013-01-13 21:27:00,29.7,-1.8,30.11,NE,47,6.3,6.3,25,0.00,,BKN250,0.00,VWS V14.01,2013-01-14 05:27:00,
2013-01-13 21:32:00,29.5,-2.0,30.11,NE,47,6.3,6.3,25,0.00,,BKN250,0.00,VWS V14.01,2013-01-14 05:32:00,
2013-01-13 21:37:00,29.5,-2.0,30.11,NE,44,4.0,4.0,25,0.00,,BKN250,0.00,VWS V14.01,2013-01-14 05:37:00,
2013-01-13 21:42:00,29.5,-2.0,30.11,NE,39,5.4,5.4,25,0.00,,BKN250,0.00,VWS V14.01,2013-01-14 05:42:00,
2013-01-13 21:47:00,29.5,-2.0,30.11,NE,38,0.0,0.0,25,0.00,,BKN250,0.00,VWS V14.01,2013-01-14 05:47:00,
2013-01-13 21:52:00,29.1,-2.3,30.11,NE,38,0.0,0.0,25,0.00,,BKN250,0.00,VWS V14.01,2013-01-14 05:52:00,
2013-01-13 21:57:00,29.1,-2.3,30.11,WNW,299,0.0,0.0,25,0.00,,BKN250,0.00,VWS V14.01,2013-01-14 05:57:00,
2013-01-13 22:02:00,28.9,-2.5,30.14,WNW,299,0.0,0.0,25,0.00,,FEW085,0.00,VWS V14.01,2013-01-14 06:02:00,
2013-01-13 22:07:00,28.9,-2.5,30.14,WNW,299,0.0,0.0,25,0.00,,FEW085,0.00,VWS V14.01,2013-01-14 06:07:00,
2013-01-13 22:12:00,28.6,-2.8,30.14,WNW,299,0.0,0.0,25,0.00,,FEW085,0.00,VWS V14.01,2013-01-14 06:12:00,
2013-01-13 22:17:00,28.8,-2.6,30.14,WNW,299,0.0,0.0,25,0.00,,FEW085,0.00,VWS V14.01,2013-01-14 06:17:00,
2013-01-13 22:22:00,28.9,-2.5,30.14,WNW,299,0.0,0.0,25,0.00,,FEW085,0.00,VWS V14.01,2013-01-14 06:22:00,
2013-01-13 22:27:00,29.1,-2.3,30.14,WNW,297,0.0,0.0,25,0.00,,FEW085,0.00,VWS V14.01,2013-01-14 06:27:00,
2013-01-13 22:32:00,29.1,-2.3,30.14,West,277,4.9,4.9,25,0.00,,FEW085,0.00,VWS V14.01,2013-01-14 06:32:00,
2013-01-13 22:37:00,28.8,-2.6,30.14,West,277,4.9,4.9,25,0.00,,FEW085,0.00,VWS V14.01,2013-01-14 06:37:00,
2013-01-13 22:42:00,28.2,-2.2,30.14,NNW,327,6.3,6.3,26,0.00,,FEW085,0.00,VWS V14.01,2013-01-14 06:42:00,
2013-01-13 22:47:00,27.9,-2.6,30.14,WNW,301,5.4,5.8,26,0.00,,FEW085,0.00,VWS V14.01,2013-01-14 06:47:00,
2013-01-13 22:52:00,27.9,-2.6,30.14,NW,325,6.7,6.7,26,0.00,,FEW085,0.00,VWS V14.01,2013-01-14 06:52:00,
2013-01-13 22:57:00,27.5,-2.9,30.14,NNW,338,7.6,7.6,26,0.00,,FEW085,0.00,VWS V14.01,2013-01-14 06:57:00,
2013-01-13 23:02:00,27.3,-3.0,30.14,WNW,295,11.4,13.6,26,0.00,,FEW085,0.00,VWS V14.01,2013-01-14 07:02:00,
2013-01-13 23:07:00,27.5,-2.9,30.14,WNW,289,14.1,14.1,26,0.00,,FEW085,0.00,VWS V14.01,2013-01-14 07:07:00,
2013-01-13 23:12:00,27.5,-2.9,30.14,WNW,301,15.4,16.8,26,0.00,,FEW085,0.00,VWS V14.01,2013-01-14 07:12:00,
2013-01-13 23:17:00,27.5,-2.9,30.14,NW,308,10.1,12.3,26,0.00,,FEW085,0.00,VWS V14.01,2013-01-14 07:17:00,
2013-01-13 23:22:00,27.5,-2.9,30.14,WNW,301,15.0,15.0,26,0.00,,FEW085,0.00,VWS V14.01,2013-01-14 07:22:00,
2013-01-13 23:27:00,27.5,-2.9,30.14,WNW,283,11.9,15.9,26,0.00,,FEW085,0.00,VWS V14.01,2013-01-14 07:27:00,
2013-01-13 23:32:00,27.3,-3.0,30.14,NW,307,13.2,15.0,26,0.00,,FEW085,0.00,VWS V14.01,2013-01-14 07:32:00,
2013-01-13 23:37:00,27.1,-3.2,30.14,NW,306,10.5,12.3,26,0.00,,FEW085,0.00,VWS V14.01,2013-01-14 07:37:00,
2013-01-13 23:42:00,27.0,-3.3,30.14,NW,306,11.4,11.4,26,0.00,,FEW085,0.00,VWS V14.01,2013-01-14 07:42:00,
2013-01-13 23:47:00,27.0,-3.3,30.14,WNW,302,5.4,8.1,26,0.00,,FEW085,0.00,VWS V14.01,2013-01-14 07:47:00,
2013-01-13 23:52:00,26.8,-3.5,30.14,NW,311,12.8,14.5,26,0.00,,FEW085,0.00,VWS V14.01,2013-01-14 07:52:00,
2013-01-13 23:57:00,26.8,-3.5,30.14,WNW,298,25.1,25.1,26,0.00,,FEW085,0.00,VWS V14.01,2013-01-14 07:57:00,